Showing default

CONNECTA IOT-5, 62703

Orbit data source: Space-Track

CONNECTA IOT-5, 62703 is a payload satellite owned by Plan-S (TR) in SSO that was launched on Tue, 14 Jan 2025 UTC via an FALCON 9 launch vehicle from the Air Force Western Test Range (AFWTR). Payload-class satellites include a variety of spacecraft equipped with specific instruments for various scientific and technological missions. These include communications satellites like Starlink; space stations such as the ISS; scientific satellites like the Hubble; Earth observation satellites from companies like Planet Labs, Umbra, and HawkEye 360; GPS; miniature CubeSats for education and research; and military/defense satellites.

Loading next visibility...
Identifier
62703, 2025-009CY
Orbit
SSO
Country
Flag of UnknownUnknown / TURK
Related business
Manufacturer
Plan-S
Mission
Operational Commercial Communications
Bus & Motor
CUBESAT 6U, Unknown motor
Mass
10 kg wet, 10 kg dry
Launch date (UTC)
2025-01-14 (1 year ago)
Launch vehicle
FALCON 9
Launch site
Air Force Western Test Range (AFWTR)
Object type
Payload
Rocket body
Debris
Shape & HBR
Box, 2.2 m
Radar Cross Section
0.080 m², Medium (>0.1 m² and < 1m²)

Expand to show TLE details & history
Last TLE update: 12 hours ago

TLE from 12 hours ago
0 CONNECTA IOT-5
1 62703U 25009CY  26034.16569222  .00002008  00000-0  19176-3 0  9999
2 62703  97.7128 115.2304 0003490 127.2486 232.9053 14.94380308 57350
Epoch: 2026-02-03T03:58Z
TLE epoch observation values (Epoch: 2026-02-03T03:58:35.807Z)
Latitude
-0.00005°
Longitude
-77.76932°
Altitude
588.81 km
Speed
7.565 km/s
True Right ascension
07h 40m 55s
True Declination
0° 00' 00"
Sunlit
Object was in full shadow at epoch
Visualization orbit readout
Latitude
Unknown
Longitude
Unknown
Altitude
Unknown
Speed
Unknown
Apparent Right ascension
Unknown
Apparent Declination
Unknown
Sunlit
N/A
Visualization observer readout
Local Sidereal Time
18:04:24
Azimuth
Unknown
Elevation
Unknown
Doppler factor
Unknown
Orbital elements
Apogee altitude
583.739 km
Perigee altitude
578.881 km
Semi-major axis
6,959.447 km
Eccentricity
0.00035
Inclination
97.7128°
RAAN
115.2304°
Arg. of periapsis
127.2486°
True anomaly
232.87341°
Mean anomaly
232.9053°
Eccentric anomaly
232.88935°
Mean motion
3.73836 °/min
Orbital period
96.3 mins
BSTAR
0.00019176
Loading maneuver chart data...
Computing Atmospheric mass density...
Loading historical data...
Loading historical data...
Loading historical data...
Loading historical data...
Loading historical data...
Loading historical data...
Loading historical data...

Documentation

Showing up to 5 results
|